Home > Weather > Porsgrunn > Past weeks

Flag for Norway Past Weather in Porsgrunn, Norway — Yesterday and Last 2 Weeks

Now
63 °F

Mild.


Feels Like: 63 °F
Forecast: 54 / 67 °F
Wind: 3 mph from Northeast

Location: Jomfruland Fyr

Current Time: Jun 26, 2016 at 1:23:54 AM

Latest Report: Jun 26, 2016 at 12:00 AM


Visibility: N/A

Pressure: 29.88 "Hg

Humidity: 85%

Dew Point: 58 °F

Location of PorsgrunnLocation

Past Weather in Porsgrunn — Graph

°F

Porsgrunn Temperature Yesterday

Maximum temperature yesterday: 68 °F (at 1:00 PM)
Minimum temperature yesterday: 58 °F (at 5:00 AM)
Average temperature yesterday: 63 °F

High & Low Weather Summary for the Past Weeks

 TemperatureHumidityPressure
High70 °F (Jun 16, 2:00 PM)94% (Jun 20, 8:00 PM)30.18 "Hg (Jun 20, 8:00 PM)
Low51 °F (Jun 12, 5:00 AM)27% (Jun 13, 4:00 PM)29.56 "Hg (Jun 17, 8:00 PM)
Average61 °F75%29.84 "Hg
* Reported Jun 11 12:00 AM — Jun 26 12:00 AM, Porsgrunn, Weather by CustomWeather, © 2016

Note: Actual official high and low records may vary slightly from our data, if they occured in-between our weather recording intervals... More about our weather records

Advertising

Porsgrunn Weather History for the Previous 24 Hours

Scroll right to see more
 ConditionsComfort  
Time TempWeatherWind HumidityBarometerVisibility
12:00 AM
Sun, Jun 26
63 °FMild.3 mph85%29.88 "HgN/A
11:00 PM
Sat, Jun 25
61 °FCool.1 mph88%29.92 "HgN/A
10:00 PM63 °FMild.1 mph86%29.93 "HgN/A
9:00 PM63 °FMild.1 mph85%29.93 "HgN/A
8:00 PM65 °FMild.1 mph81%29.93 "HgN/A
7:00 PM65 °FMild.1 mph75%29.93 "HgN/A
5:00 PM66 °FMild.6 mph71%29.97 "HgN/A
4:00 PM65 °FMild.7 mph76%29.99 "HgN/A
3:00 PM66 °FMild.6 mph72%30.00 "HgN/A
2:00 PM68 °FMild.5 mph69%29.99 "HgN/A
1:00 PM68 °FMild.5 mph70%29.99 "HgN/A
12:00 PM66 °FMild.5 mph78%30.00 "HgN/A
11:00 AM67 °FMild.5 mph66%30.00 "HgN/A
10:00 AM66 °FMild.3 mph66%30.00 "HgN/A
9:00 AM65 °FMild.2 mph72%29.98 "HgN/A
8:00 AM63 °FMild.1 mph75%29.98 "HgN/A
7:00 AM61 °FCool.2 mph81%29.97 "HgN/A
6:00 AM59 °FCool.3 mph88%29.97 "HgN/A
5:00 AM58 °FCool.3 mph90%29.96 "HgN/A
4:00 AM59 °FCool.3 mph91%29.96 "HgN/A
3:00 AM59 °FCool.3 mph92%29.96 "HgN/A
2:00 AM59 °FCool.6 mph93%29.95 "HgN/A
1:00 AM60 °FCool.7 mph93%29.94 "HgN/A
Weather by CustomWeather, © 2016

See weather overviewHow to use our weather pages